Flag for Germany Weather past 2 weeks in Goch, North Rhine-Westphalia, Germany

Now
48 °F

Light rain. Passing clouds.


Feels Like: 42 °F
Forecast: 35 / 44 °F
Wind: 15 mph from South

Location: Niederrhein

Current Time: Mar 2, 2015 at 3:02:19 AM

Latest Report: Mar 1, 2015 at 11:50 PM


Visibility: N/A

Pressure: 29.42 "Hg

Humidity: 94%

Dew point: 46 °F

Location of GochLocation

Historic Weather in Goch — Graph

°F

Goch temperature yesterday

Maximum temperature yesterday: 52 °F (at 11:20 AM)
Minimum temperature yesterday: 41 °F (at 4:50 AM)
Average temperature yesterday: 48 °F

Past Weeks' High & Low Weather Summary

 TemperatureHumidityPressure
High52 °F (Mar 1, 11:20 AM)100% (Feb 14, 11:50 PM)30.74 "Hg (Feb 14, 11:50 PM)
Low27 °F (Feb 18, 4:50 AM)57% (Feb 27, 4:20 PM)29.33 "Hg (Feb 23, 2:20 PM)
Average40 °F95%29.94 "Hg
* Reported Feb 14 11:20 PM — Mar 1 11:50 PM, Goch, Weather by CustomWeather, © 2015

Note: Actual official high and low records may vary slightly from our data, if they occured in-between our weather recording intervals... More about our weather records

Advertising

Goch weather history for previous 24 hours

 ConditionsComfort  
Time TempWeatherWind HumidityBarometerVisibility
11:50 PM
Sun, Mar 1
48 °FLight rain. Passing clouds.15 mph94%29.42 "HgN/A
11:20 PM46 °FSprinkles. Passing clouds.13 mph100%29.45 "HgN/A
10:50 PM46 °FClear.10 mph100%29.45 "Hg10 mi
10:20 PM46 °FPassing clouds.9 mph93%29.50 "HgN/A
9:50 PM46 °FPassing clouds.9 mph93%29.53 "HgN/A
9:20 PM45 °FClear.8 mph100%29.53 "Hg10 mi
8:20 PM46 °FClear.12 mph93%29.56 "Hg10 mi
7:50 PM46 °FClear.12 mph93%29.56 "Hg10 mi
7:20 PM46 °FPassing clouds.7 mph87%29.59 "HgN/A
6:50 PM48 °FScattered clouds.8 mph82%29.59 "HgN/A
6:20 PM48 °FSunny.10 mph82%29.59 "Hg10 mi
5:50 PM48 °FPartly sunny.8 mph87%29.59 "HgN/A
5:20 PM50 °FScattered clouds.15 mph76%29.59 "HgN/A
4:50 PM50 °FSprinkles. Scattered clouds.9 mph82%29.59 "HgN/A
4:20 PM50 °FBroken clouds.8 mph88%29.59 "HgN/A
3:50 PM48 °FSunny.12 mph94%29.59 "Hg10 mi
3:20 PM48 °FScattered showers. Clear.14 mph94%29.59 "HgN/A
2:50 PM46 °FLight rain. Partly sunny.18 mph93%29.59 "HgN/A
2:20 PM50 °FSprinkles. Partly sunny.15 mph67%29.59 "HgN/A
1:50 PM52 °FPartly sunny.20 mph58%29.56 "HgN/A
1:20 PM52 °FPartly sunny.21 mph58%29.59 "HgN/A
12:50 PM52 °FScattered clouds.24 mph67%29.59 "HgN/A
12:20 PM52 °FScattered clouds.24 mph72%29.59 "HgN/A
11:50 AM52 °FBroken clouds.21 mph77%29.59 "HgN/A
11:20 AM52 °FPartly sunny.20 mph82%29.56 "HgN/A
10:50 AM50 °FScattered clouds.21 mph100%29.56 "HgN/A
10:20 AM50 °FScattered clouds.21 mph100%29.56 "HgN/A
9:50 AM50 °FScattered showers. Scattered clouds.16 mph100%29.56 "HgN/A
9:20 AM48 °FScattered clouds.16 mph100%29.56 "HgN/A
8:50 AM48 °FBroken clouds.16 mph100%29.53 "HgN/A
8:20 AM46 °FPassing clouds.15 mph100%29.53 "HgN/A
7:50 AM46 °FPassing clouds.15 mph100%29.50 "HgN/A
7:20 AM45 °FPassing clouds.15 mph100%29.53 "HgN/A
6:50 AM45 °FPassing clouds.15 mph100%29.53 "HgN/A
6:20 AM43 °FPassing clouds.16 mph100%29.50 "HgN/A
5:50 AM43 °FPassing clouds.15 mph100%29.53 "HgN/A
5:20 AM43 °FPassing clouds.16 mph100%29.53 "HgN/A
4:50 AM41 °FDrizzle. Fog.16 mph100%29.53 "Hg2 mi
Weather by CustomWeather, © 2015

See weather overviewHow to use our weather pages